Location: Kunchanapalle
(16.4623°N, 80.6176°E)
Time: 16:26:49
(UTC+00:00)

Palapa 6 Rocket - Pass Details

Date: 13 August 2020
Orbit: 485 x 1217 km, 22.7° (Epoch: 18 September)

Event Time Altitude Azimuth Distance (km) Brightness Sun altitude
Rises 14:53:01 0° 286° (WNW) 3,880 8.4 -25.5°
Reaches altitude 10° 14:55:41 10° 286° (WNW) 2,998 7.5 -26.1°
Maximum altitude 15:03:23 85° 199° (SSW) 1,208 4.3 -27.8°
Enters shadow 15:04:55 63° 119° (ESE) 1,335 4.3 -28.1°
